• In United Kingdom
  • List of Countries
  • For 7 days
  • Water Temperature
  • Satellite Maps
  • Weather Map
  • Weather Widgets
  • user-avatar
    Login

    Hourly Weather Canberra

    Today, 22 July, Saturday

    Time Temperature Precipitation Wind Pressure Humidity
    00:00 +1°C° 0 mm 1 mps 713 mmHg 79%
    01:00 +1°C° 0 mm 1 mps 713 mmHg 80%
    02:00 +1°C° 0 mm 1 mps 713 mmHg 80%
    03:00 0°C° 0 mm 1 mps 713 mmHg 79%
    04:00 +1°C° 0 mm 1 mps 712 mmHg 78%
    05:00 0°C° 0 mm 1 mps 712 mmHg 77%
    06:00 0°C° 0 mm 1 mps 712 mmHg 75%
    07:00 0°C° 0 mm 1 mps 712 mmHg 74%
    08:00 +2°C° 0 mm 2 mps 712 mmHg 63%
    09:00 +5°C° 0 mm 2 mps 713 mmHg 51%
    10:00 +8°C° 0 mm 2 mps 713 mmHg 39%
    11:00 +10°C° 0 mm 3 mps 712 mmHg 37%
    12:00 +11°C° 0 mm 4 mps 712 mmHg 35%
    13:00 +12°C° 0 mm 4 mps 711 mmHg 33%
    14:00 +12°C° 0 mm 4 mps 711 mmHg 36%
    15:00 +11°C° 0 mm 4 mps 711 mmHg 40%
    16:00 +8°C° 0 mm 5 mps 710 mmHg 44%
    17:00 +6°C° 0 mm 4 mps 710 mmHg 53%
    18:00 +4°C° 0 mm 3 mps 710 mmHg 61%
    19:00 +2°C° 0 mm 3 mps 710 mmHg 70%
    20:00 +2°C° 0 mm 3 mps 710 mmHg 70%
    21:00 +3°C° 0 mm 2 mps 710 mmHg 70%
    22:00 +3°C° 0 mm 2 mps 710 mmHg 67%
    23:00 +3°C° 0 mm 2 mps 710 mmHg 65%

    Tomorrow, 23 July, Sunday

    Time Temperature Precipitation Wind Pressure Humidity
    00:00 +3°C° 0 mm 2 mps 709 mmHg 64%
    01:00 +3°C° 0 mm 2 mps 709 mmHg 63%
    02:00 +2°C° 0 mm 2 mps 709 mmHg 63%
    03:00 +2°C° 0 mm 2 mps 709 mmHg 63%
    04:00 +2°C° 0 mm 2 mps 709 mmHg 63%
    05:00 +1°C° 0 mm 3 mps 709 mmHg 64%
    06:00 +1°C° 0 mm 3 mps 708 mmHg 65%
    07:00 +1°C° 0 mm 3 mps 708 mmHg 66%
    08:00 +4°C° 0 mm 4 mps 708 mmHg 58%
    09:00 +6°C° 0 mm 5 mps 708 mmHg 51%
    10:00 +9°C° 0 mm 6 mps 708 mmHg 43%
    11:00 +10°C° 0 mm 6 mps 708 mmHg 42%
    12:00 +11°C° 0 mm 7 mps 707 mmHg 42%
    13:00 +13°C° 0 mm 8 mps 707 mmHg 41%
    14:00 +12°C° 0 mm 7 mps 706 mmHg 44%
    15:00 +12°C° 0 mm 7 mps 706 mmHg 47%
    16:00 +11°C° 0 mm 6 mps 706 mmHg 51%
    17:00 +10°C° 0 mm 5 mps 706 mmHg 57%
    18:00 +8°C° 0 mm 5 mps 707 mmHg 63%
    19:00 +6°C° 0 mm 4 mps 707 mmHg 70%
    20:00 +6°C° 0 mm 4 mps 707 mmHg 73%
    21:00 +6°C° 0 mm 4 mps 708 mmHg 77%
    22:00 +6°C° 0 mm 4 mps 708 mmHg 80%
    23:00 +6°C° 0 mm 4 mps 708 mmHg 81%

    Day after tomorrow, 24 July, Monday

    Time Temperature Precipitation Wind Pressure Humidity
    00:00 +6°C° 0 mm 4 mps 708 mmHg 82%
    01:00 +6°C° 0 mm 4 mps 709 mmHg 84%
    02:00 +6°C° 0 mm 4 mps 708 mmHg 85%
    03:00 +5°C° 0 mm 3 mps 708 mmHg 87%
    04:00 +5°C° 0 mm 3 mps 708 mmHg 88%
    05:00 +4°C° 0 mm 3 mps 709 mmHg 89%
    06:00 +4°C° 0 mm 3 mps 709 mmHg 91%
    07:00 +5°C° 0 mm 2 mps 710 mmHg 92%
    08:00 +5°C° 0 mm 3 mps 710 mmHg 84%
    09:00 +8°C° 0 mm 3 mps 711 mmHg 76%
    10:00 +8°C° 0 mm 4 mps 711 mmHg 69%
    11:00 +10°C° 0 mm 4 mps 711 mmHg 65%
    12:00 +10°C° 0 mm 4 mps 711 mmHg 62%
    13:00 +10°C° 0 mm 5 mps 711 mmHg 58%
    14:00 +10°C° 0 mm 4 mps 711 mmHg 61%
    15:00 +10°C° 0 mm 4 mps 711 mmHg 64%
    16:00 +8°C° 0 mm 4 mps 711 mmHg 67%
    17:00 +7°C° 0 mm 4 mps 711 mmHg 72%
    18:00 +7°C° 0 mm 3 mps 711 mmHg 76%
    19:00 +6°C° 0 mm 2 mps 712 mmHg 81%
    20:00 +5°C° 0 mm 2 mps 712 mmHg 84%
    21:00 +5°C° 0 mm 2 mps 712 mmHg 87%
    22:00 +4°C° 0 mm 2 mps 713 mmHg 90%
    23:00 +4°C° 0 mm 2 mps 713 mmHg 91%

    25 July, Tuesday

    Time Temperature Precipitation Wind Pressure Humidity
    00:00 +4°C° 0 mm 1 mps 712 mmHg 92%
    01:00 +4°C° 0 mm 1 mps 712 mmHg 93%
    02:00 +4°C° 0 mm 1 mps 712 mmHg 93%
    03:00 +4°C° 0 mm 1 mps 712 mmHg 94%
    04:00 +4°C° 0 mm 1 mps 712 mmHg 94%
    05:00 +4°C° 0 mm 1 mps 712 mmHg 94%
    06:00 +4°C° 0 mm 1 mps 713 mmHg 95%
    07:00 +4°C° 0 mm 1 mps 713 mmHg 95%
    08:00 +5°C° 0 mm 2 mps 713 mmHg 88%
    09:00 +7°C° 0 mm 3 mps 713 mmHg 80%
    10:00 +9°C° 0 mm 3 mps 714 mmHg 72%
    11:00 +11°C° 0 mm 4 mps 713 mmHg 66%
    12:00 +12°C° 0 mm 4 mps 712 mmHg 60%
    13:00 +13°C° 0 mm 5 mps 712 mmHg 54%
    14:00 +13°C° 0 mm 5 mps 711 mmHg 57%
    15:00 +12°C° 0 mm 4 mps 711 mmHg 59%
    16:00 +12°C° 0 mm 4 mps 710 mmHg 61%
    17:00 +11°C° 0 mm 4 mps 710 mmHg 69%
    18:00 +9°C° 0 mm 3 mps 710 mmHg 78%
    19:00 +7°C° 0 mm 2 mps 710 mmHg 86%
    20:00 +8°C° 0 mm 3 mps 710 mmHg 83%
    21:00 +8°C° 0 mm 3 mps 710 mmHg 79%
    22:00 +7°C° 0 mm 4 mps 710 mmHg 76%
    23:00 +8°C° 0 mm 4 mps 709 mmHg 73%

    26 July, Wednesday

    Time Temperature Precipitation Wind Pressure Humidity
    00:00 +8°C° 0 mm 4 mps 709 mmHg 70%
    01:00 +8°C° 0 mm 5 mps 708 mmHg 68%
    02:00 +8°C° 0.1 mm 5 mps 708 mmHg 68%
    03:00 +8°C° 0.1 mm 5 mps 708 mmHg 68%
    04:00 +8°C° 0.1 mm 5 mps 707 mmHg 68%
    05:00 +8°C° 1 mm 5 mps 708 mmHg 76%
    06:00 +7°C° 1 mm 5 mps 708 mmHg 83%
    07:00 +6°C° 1 mm 4 mps 708 mmHg 91%
    08:00 +7°C° 0.1 mm 5 mps 708 mmHg 87%
    09:00 +8°C° 0.1 mm 5 mps 708 mmHg 83%
    10:00 +9°C° 0.1 mm 6 mps 709 mmHg 79%
    11:00 +9°C° 0.1 mm 6 mps 708 mmHg 75%
    12:00 +10°C° 0.1 mm 7 mps 708 mmHg 72%
    13:00 +10°C° 0.1 mm 7 mps 708 mmHg 68%
    14:00 +10°C° 0 mm 7 mps 708 mmHg 68%
    15:00 +9°C° 0 mm 7 mps 708 mmHg 68%
    16:00 +9°C° 0 mm 6 mps 707 mmHg 68%
    17:00 +8°C° 0 mm 6 mps 708 mmHg 72%
    18:00 +7°C° 0 mm 5 mps 708 mmHg 75%
    19:00 +6°C° 0 mm 4 mps 709 mmHg 79%
    20:00 +6°C° 0 mm 4 mps 709 mmHg 80%
    21:00 +6°C° 0 mm 4 mps 709 mmHg 80%
    22:00 +6°C° 0 mm 4 mps 710 mmHg 81%
    23:00 +5°C° 0 mm 4 mps 710 mmHg 81%

    27 July, Thursday

    Time Temperature Precipitation Wind Pressure Humidity
    00:00 +5°C° 0 mm 4 mps 710 mmHg 81%
    01:00 +5°C° 0 mm 4 mps 710 mmHg 81%
    02:00 +4°C° 0 mm 3 mps 710 mmHg 83%
    03:00 +3°C° 0 mm 3 mps 710 mmHg 85%
    04:00 +4°C° 0 mm 2 mps 710 mmHg 87%
    05:00 +3°C° 0 mm 2 mps 711 mmHg 89%
    06:00 +2°C° 0 mm 2 mps 711 mmHg 91%
    07:00 +3°C° 0 mm 1 mps 712 mmHg 93%
    08:00 +5°C° 0 mm 1 mps 712 mmHg 82%
    09:00 +7°C° 0 mm 1 mps 713 mmHg 70%
    10:00 +10°C° 0 mm 1 mps 714 mmHg 59%
    11:00 +11°C° 0 mm 1 mps 714 mmHg 52%
    12:00 +12°C° 0 mm 1 mps 714 mmHg 45%
    13:00 +14°C° 0 mm 1 mps 713 mmHg 39%
    14:00 +13°C° 0 mm 2 mps 713 mmHg 42%
    15:00 +13°C° 0 mm 2 mps 713 mmHg 45%
    16:00 +12°C° 0 mm 2 mps 713 mmHg 48%
    17:00 +9°C° 0 mm 2 mps 713 mmHg 61%
    18:00 +7°C° 0 mm 1 mps 713 mmHg 73%
    19:00 +5°C° 0 mm 1 mps 713 mmHg 86%
    20:00 +5°C° 0 mm 1 mps 714 mmHg 87%
    21:00 +4°C° 0 mm 1 mps 714 mmHg 88%
    22:00 +4°C° 0 mm 1 mps 714 mmHg 90%
    23:00 +4°C° 0 mm 1 mps 713 mmHg 90%
    Show more